Weather History for Milford, UT

Change the Weather History Date:

Friday, March 15, 2013

  Actual Average Record
Temperature  
Mean Temperature 57 °F -  
Max Temperature 75 °F 55 °F 75 °F (2013)
Min Temperature 39 °F 25 °F 12 °F (2002)
Degree Days  
Heating Degree Days 8    
Growing Degree Days 7 (Base 50)    
Moisture  
Dew Point 30 °F    
Average Humidity 42    
Maximum Humidity 70    
Minimum Humidity 8    
Precipitation  
Precipitation 0.00 in - - ()
Sea Level Pressure  
Sea Level Pressure 29.99 in    
Wind  
Wind Speed 11 mph (SW)    
Max Wind Speed 16 mph    
Max Gust Speed 18 mph    
Visibility 8 miles    
Events      
Averages and records for this station are not official NWS values.
T = Trace of Precipitation, MM = Missing Value Source: NWS Daily Summary

Daily Weather History Graph

Daily Weather History Graph

Search for Another Location

Airport:

Trip Planner

Search our weather history database for the weather conditions in past years. The results will help you decide how hot, cold, wet, or windy it might be!

Date:

Astronomy

Mar. 15, 2013 Rise Set
Actual Time 7:42 AM MDT 7:39 PM MDT
Civil Twilight 7:16 AM MDT 8:05 PM MDT
Nautical Twilight 6:45 AM MDT 8:36 PM MDT
Astronomical Twilight 6:14 AM MDT 9:07 PM MDT
Moon 9:38 AM MDT (3/15) 11:53 PM MDT (3/15)
Length of Visible Light 12h 49m
Length of Day
11h 56m
Waxing Crescent, 16% of the Moon is Illuminated
Mar 15
Waxing Crescent
Mar 19
First Quarter
Mar 27
Full
Apr 2
Last Quarter
Apr 10
New

Hourly Weather History & Observations

Time (MDT) Temp. Windchill Dew Point Humidity Pressure Visibility Wind Dir Wind Speed Gust Speed Precip Events Conditions
12:52 AM 53.1 °F - 28.9 °F 40% 30.06 in 10.0 mi SW 15.0 mph - N/A   Clear
1:52 AM 50.0 °F - 28.9 °F 44% 30.04 in 10.0 mi SW 12.7 mph - N/A   Clear
2:52 AM 46.9 °F - 30.0 °F 52% 30.05 in 10.0 mi SSW 12.7 mph - N/A   Clear
3:16 AM 44.6 °F 39.2 °F 30.2 °F 57% 30.16 in 1.8 mi South 10.4 mph - N/A   Haze
3:21 AM 44.6 °F 39.7 °F 30.2 °F 57% 30.16 in 0.2 mi South 9.2 mph - N/A   Haze
3:30 AM 42.8 °F 37.5 °F 30.2 °F 61% 30.16 in 3.0 mi South 9.2 mph - N/A   Haze
3:52 AM 43.0 °F 37.7 °F 30.9 °F 62% 30.04 in 10.0 mi South 9.2 mph - N/A   Clear
4:52 AM 42.1 °F 36.1 °F 30.9 °F 65% 30.02 in 10.0 mi SSW 10.4 mph - N/A   Clear
5:10 AM 42.8 °F 37.0 °F 30.2 °F 61% 30.13 in 0.5 mi South 10.4 mph - N/A   Haze
5:22 AM 42.8 °F 36.2 °F 30.2 °F 61% 30.13 in 3.0 mi SW 12.7 mph - N/A   Haze
5:52 AM 46.0 °F 39.9 °F 28.9 °F 51% 30.00 in 10.0 mi SW 13.8 mph - N/A   Clear
6:52 AM 41.0 °F 35.2 °F 30.9 °F 67% 30.04 in 10.0 mi South 9.2 mph - N/A   Clear
7:52 AM 39.9 °F 35.1 °F 30.9 °F 70% 30.07 in 10.0 mi SW 6.9 mph - N/A   Clear
8:52 AM 43.0 °F 38.2 °F 30.9 °F 62% 30.06 in 10.0 mi SSW 8.1 mph - N/A   Clear
9:52 AM 48.9 °F - 33.1 °F 54% 30.05 in 10.0 mi SSW 12.7 mph - N/A   Clear
10:52 AM 61.0 °F - 27.0 °F 27% 30.02 in 10.0 mi SSW 16.1 mph - N/A   Clear
11:52 AM 64.0 °F - 27.0 °F 25% 30.00 in 10.0 mi South 15.0 mph - N/A   Clear
12:52 PM 68.0 °F - 30.0 °F 24% 29.97 in 10.0 mi South 15.0 mph - N/A   Clear
1:52 PM 72.0 °F - 24.1 °F 17% 29.93 in 10.0 mi SSW 13.8 mph - N/A   Clear
3:52 PM 73.9 °F - 24.1 °F 16% 29.86 in 10.0 mi South 12.7 mph 18.4 mph N/A   Clear
4:52 PM 72.0 °F - 25.0 °F 17% 29.85 in 10.0 mi NNW 9.2 mph - N/A   Mostly Cloudy
5:52 PM 73.0 °F - 25.0 °F 17% 29.84 in 10.0 mi North 13.8 mph - N/A   Clear
6:52 PM 69.1 °F - 26.1 °F 20% 29.86 in 10.0 mi North 8.1 mph - N/A   Clear
7:52 PM 62.1 °F - 28.9 °F 29% 29.90 in 0.5 mi WNW 3.5 mph - N/A   Haze
8:01 PM 59.0 °F - 30.2 °F 34% 29.97 in 2.5 mi NNW 5.8 mph - N/A   Haze
8:06 PM 57.2 °F - 30.2 °F 36% 29.98 in 10.0 mi NNW 8.1 mph - N/A   Clear
8:52 PM 53.1 °F - 34.0 °F 48% 29.91 in 10.0 mi SW 3.5 mph - N/A   Clear
9:28 PM 53.6 °F - 32.0 °F 44% 29.98 in 0.5 mi Variable 4.6 mph - N/A   Haze
9:33 PM 53.6 °F - 32.0 °F 44% 29.98 in 3.0 mi WSW 4.6 mph - N/A   Haze
9:52 PM 51.1 °F - 33.1 °F 50% 29.91 in 10.0 mi WSW 5.8 mph - N/A   Clear
10:52 PM 51.1 °F - 32.0 °F 48% 29.88 in 10.0 mi WSW 6.9 mph - N/A   Clear
11:52 PM 51.1 °F - 32.0 °F 48% 29.87 in 10.0 mi West 4.6 mph - N/A   Clear